Zurück zum Katalog

COSMOS 2251 DEB

AktivLEO
NORAD 33982·DEBRIS·🇷🇺 Russia

Gestartet Jun 16, 1993 von Plesetsk Cosmodrome

Loading…

Nächste Überflüge (nächste 24 Stunden)

TLE

AktuellSource: Space-Track

Epoche: Sep 14, 2026, 05:26 UTC

1 33982U 93036FR  26257.22686639  .00000985  00000-0  19810-3 0  9994
2 33982  74.0694 194.5365 0074369 169.1135 261.7328 14.61293918931821

Verfolge COSMOS 2251 DEB in Echtzeit mit AllMySat

Download on the App Store